Flag for Germany Weather past 2 weeks in Walsrode, Lower Saxony, Germany

Now
64 °F

Fog.


Feels Like: 64 °F
Forecast: 65 / 83 °F
Wind: 5 mph from Northeast

Location: Fassberg

Current Time: Jul 28, 2014 at 9:34:17 AM

Latest Report: Jul 28, 2014 at 8:20 AM


Visibility: 2 mi

Pressure: 29.95 "Hg

Humidity: 100%

Dew point: 64 °F

Location of WalsrodeLocation

Historic Weather in Walsrode — Graph

°F

Walsrode temperature yesterday

Maximum temperature yesterday: 82 °F (at 4:20 PM)
Minimum temperature yesterday: 61 °F (at 4:20 AM)
Average temperature yesterday: 72 °F

Past Weeks' High & Low Weather Summary

 TemperatureHumidityPressure
High88 °F (Jul 19, 1:20 PM)100% (Jul 13, 10:20 PM)30.21 "Hg (Jul 13, 10:20 PM)
Low50 °F (Jul 17, 5:20 AM)31% (Jul 19, 4:20 PM)29.71 "Hg (Jul 13, 2:20 PM)
Average69 °F74%29.99 "Hg
* Reported Jul 13 8:20 AM — Jul 28 8:20 AM, Walsrode, Weather by CustomWeather, © 2014

Note: Actual official high and low records may vary slightly from our data, if they occured in-between our weather recording intervals... More about our weather records

Advertising

Walsrode weather history for previous 24 hours

 ConditionsComfort  
Time TempWeatherWind HumidityBarometerVisibility
8:20 AM
Jul 28
64 °FFog.5 mph100%29.95 "Hg2 mi
7:55 AM64 °FFog.6 mph100%29.95 "Hg2 mi
7:20 AM63 °FFog.5 mph100%29.95 "Hg0 mi
6:20 AM61 °FFog.2 mph100%29.98 "Hg0 mi
5:20 AM61 °FFog.5 mph94%29.95 "Hg0 mi
4:20 AM59 °FFog.1 mph94%29.95 "Hg2 mi
3:20 AM61 °FFog.1 mph94%29.98 "Hg3 mi
2:20 AM63 °FPassing clouds.2 mph94%29.98 "Hg5 mi
1:20 AM64 °FPassing clouds.6 mph94%29.98 "HgN/A
12:20 AM64 °FPassing clouds.1 mph94%29.98 "HgN/A
11:20 PM
Jul 27
68 °FPassing clouds.5 mph83%29.98 "HgN/A
10:20 PM70 °FPassing clouds.6 mph78%29.98 "HgN/A
9:20 PM72 °FScattered clouds.6 mph73%29.98 "HgN/A
8:20 PM75 °FScattered clouds.6 mph61%29.95 "HgN/A
7:20 PM79 °FPassing clouds.6 mph54%29.95 "HgN/A
6:20 PM77 °FPassing clouds.9 mph57%29.92 "HgN/A
5:20 PM81 °FScattered clouds.12 mph54%29.92 "HgN/A
4:20 PM82 °FScattered clouds.12 mph48%29.95 "HgN/A
3:20 PM81 °FScattered clouds.9 mph48%29.95 "HgN/A
2:20 PM81 °FScattered clouds.10 mph51%29.95 "HgN/A
1:20 PM81 °FScattered clouds.7 mph51%29.95 "HgN/A
12:20 PM79 °FPassing clouds.7 mph58%29.95 "HgN/A
11:20 AM79 °FPassing clouds.7 mph58%29.95 "HgN/A
10:20 AM75 °FPassing clouds.6 mph69%29.95 "HgN/A
9:20 AM72 °FPassing clouds.7 mph78%29.95 "HgN/A
Weather by CustomWeather, © 2014

See weather overviewHow to use our weather pages